,,,PA_Meas_PMT16A,,PR_Meas_QMR101_102,,RH_Meas_QMH101,,SR_Meas_QMS101,,TA_Meas_QMH101,,GenWind,,GenWind,
date,time,status,PA,status,PR,status,RH,status,SR,status,TA,status,DirAvg,status,SpdAvg,
2010-09-18, 00:00:04,VALID,1000.64,VALID,0,VALID,90.7238,VALID,0,VALID,23.1939,VALID,321,VALID,0,
2010-09-18, 00:01:04,VALID,1000.63,VALID,0,VALID,90.9603,VALID,0,VALID,23.2152,VALID,321,VALID,0.303906,
2010-09-18, 00:02:04,VALID,1000.62,VALID,0,VALID,91.1663,VALID,0,VALID,23.1939,VALID,321,VALID,0.375781,
2010-09-18, 00:03:04,VALID,1000.62,VALID,0,VALID,91.1206,VALID,0,VALID,23.1744,VALID,67,VALID,0.259766,
2010-09-18, 00:04:04,VALID,1000.6,VALID,0,VALID,91.0595,VALID,0,VALID,23.1549,VALID,67,VALID,0.11875,
2010-09-18, 00:05:04,VALID,1000.59,VALID,0,VALID,90.9832,VALID,0,VALID,23.1159,VALID,67,VALID,0.502344,
2010-09-18, 00:06:04,VALID,1000.6,VALID,0,VALID,90.823,VALID,0,VALID,23.0573,VALID,67,VALID,0.979688,
2010-09-18, 00:07:04,VALID,1000.59,VALID,0,VALID,90.7467,VALID,0,VALID,23.0573,VALID,69,VALID,1.13164,
2010-09-18, 00:08:04,VALID,1000.58,VALID,0,VALID,90.7009,VALID,0,VALID,23.0378,VALID,78,VALID,1.08672,
2010-09-18, 00:09:04,VALID,1000.53,VALID,0,VALID,90.7085,VALID,0,VALID,23.0378,VALID,56,VALID,1.01445,
2010-09-18, 00:10:04,VALID,1000.53,VALID,0,VALID,90.6704,VALID,0,VALID,23.0573,VALID,56,VALID,1.10156,
2010-09-18, 00:11:04,VALID,1000.48,VALID,0,VALID,90.6551,VALID,0,VALID,23.0573,VALID,56,VALID,1.35547,
2010-09-18, 00:12:04,VALID,1000.48,VALID,0,VALID,90.8001,VALID,0,VALID,23.0964,VALID,51,VALID,1.29375,
2010-09-18, 00:13:04,VALID,1000.48,VALID,0,VALID,90.678,VALID,0,VALID,23.0751,VALID,49,VALID,1.50312,
2010-09-18, 00:14:04,VALID,1000.46,VALID,0,VALID,90.6323,VALID,0,VALID,23.0769,VALID,45,VALID,1.6082,
2010-09-18, 00:15:04,VALID,1000.44,VALID,0,VALID,90.7314,VALID,0,VALID,23.0769,VALID,46,VALID,1.77422,
2010-09-18, 00:16:04,VALID,1000.41,VALID,0,VALID,90.7238,VALID,0,VALID,23.0361,VALID,51,VALID,1.52695,
2010-09-18, 00:17:04,VALID,1000.38,VALID,0,VALID,90.884,VALID,0,VALID,23.0378,VALID,53,VALID,1.61016,
2010-09-18, 00:18:04,VALID,1000.34,VALID,0,VALID,91.0061,VALID,0,VALID,23.0573,VALID,46,VALID,1.31211,
2010-09-18, 00:19:04,VALID,1000.3,VALID,0,VALID,90.9832,VALID,0,VALID,23.0769,VALID,33,VALID,1.1793,
2010-09-18, 00:20:04,VALID,1000.24,VALID,0,VALID,90.884,VALID,0,VALID,23.0573,VALID,14,VALID,0.988281,
2010-09-18, 00:21:04,VALID,1000.26,VALID,0,VALID,90.8077,VALID,0,VALID,23.0591,VALID,359,VALID,1.01367,
2010-09-18, 00:22:04,VALID,1000.24,VALID,0,VALID,90.8306,VALID,0,VALID,23.0183,VALID,358,VALID,1.00352,
2010-09-18, 00:23:04,VALID,1000.26,VALID,0,VALID,90.9222,VALID,0,VALID,23.0183,VALID,350,VALID,0.913281,
2010-09-18, 00:24:04,VALID,1000.23,VALID,0,VALID,91.0061,VALID,0,VALID,23.0183,VALID,341,VALID,0.463281,
2010-09-18, 00:25:04,VALID,1000.24,VALID,0,VALID,91.0443,VALID,0,VALID,22.9776,VALID,341,VALID,0.298438,
2010-09-18, 00:26:04,VALID,1000.28,VALID,0,VALID,91.1587,VALID,0,VALID,22.9988,VALID,341,VALID,0.345703,
2010-09-18, 00:27:04,VALID,1000.28,VALID,0,VALID,91.235,VALID,0,VALID,22.9776,VALID,341,VALID,0.469531,
2010-09-18, 00:28:04,VALID,1000.28,VALID,0,VALID,91.2579,VALID,0,VALID,22.9793,VALID,341,VALID,0.397266,
2010-09-18, 00:29:04,VALID,1000.3,VALID,0,VALID,91.3037,VALID,0,VALID,22.9598,VALID,341,VALID,0.488672,
2010-09-18, 00:30:04,VALID,1000.27,VALID,0,VALID,91.2426,VALID,0,VALID,22.9403,VALID,28,VALID,0.932813,
2010-09-18, 00:31:04,VALID,1000.25,VALID,0,VALID,91.0595,VALID,0,VALID,22.9208,VALID,29,VALID,0.910547,
2010-09-18, 00:32:04,VALID,1000.22,VALID,0,VALID,90.7696,VALID,0,VALID,22.8818,VALID,29,VALID,1.03437,
2010-09-18, 00:33:04,VALID,1000.19,VALID,0,VALID,90.8306,VALID,0,VALID,22.8623,VALID,35,VALID,1.10391,
2010-09-18, 00:34:04,VALID,1000.15,VALID,0,VALID,90.6857,VALID,0,VALID,22.8427,VALID,36,VALID,0.866797,
2010-09-18, 00:35:04,VALID,1000.09,VALID,0,VALID,90.762,VALID,0,VALID,22.8623,VALID,36,VALID,0.467969,
2010-09-18, 00:36:04,VALID,1000.07,VALID,0,VALID,90.7314,VALID,0,VALID,22.8427,VALID,36,VALID,0.139062,
2010-09-18, 00:37:04,VALID,1000.04,VALID,0,VALID,90.6475,VALID,0,VALID,22.8232,VALID,36,VALID,0,
2010-09-18, 00:38:04,VALID,1000,VALID,0,VALID,90.6857,VALID,0,VALID,22.7842,VALID,36,VALID,0.366016,
2010-09-18, 00:39:04,VALID,999.975,VALID,0,VALID,90.8688,VALID,0,VALID,22.7647,VALID,51,VALID,0.721094,
2010-09-18, 00:40:04,VALID,999.959,VALID,0,VALID,91.3723,VALID,0,VALID,22.8037,VALID,81,VALID,0.887109,
2010-09-18, 00:41:04,VALID,999.909,VALID,0,VALID,91.4944,VALID,0,VALID,22.864,VALID,91,VALID,0.791406,
2010-09-18, 00:42:04,VALID,999.862,VALID,0,VALID,91.3342,VALID,0,VALID,22.8835,VALID,92,VALID,0.647266,
2010-09-18, 00:43:04,VALID,999.845,VALID,0,VALID,91.0137,VALID,0,VALID,22.8623,VALID,96,VALID,0.848828,
2010-09-18, 00:44:04,VALID,999.815,VALID,0,VALID,90.8459,VALID,0,VALID,22.8623,VALID,98,VALID,0.744141,
2010-09-18, 00:45:04,VALID,999.812,VALID,0,VALID,90.7467,VALID,0,VALID,22.88,VALID,101,VALID,0.663281,
2010-09-18, 00:46:04,VALID,999.829,VALID,0,VALID,90.6551,VALID,0,VALID,22.9013,VALID,103,VALID,0.528906,
2010-09-18, 00:47:04,VALID,999.833,VALID,0,VALID,90.556,VALID,0,VALID,22.9013,VALID,103,VALID,0.587891,
2010-09-18, 00:48:04,VALID,999.795,VALID,0,VALID,90.5788,VALID,0,VALID,22.9225,VALID,103,VALID,0.560156,
2010-09-18, 00:49:04,VALID,999.831,VALID,0,VALID,90.5941,VALID,0,VALID,22.9013,VALID,103,VALID,0.578906,
2010-09-18, 00:50:04,VALID,999.815,VALID,0,VALID,90.6475,VALID,0,VALID,22.9013,VALID,103,VALID,0.755469,
2010-09-18, 00:51:04,VALID,999.794,VALID,0,VALID,90.6628,VALID,0,VALID,22.9208,VALID,115,VALID,0.622656,
2010-09-18, 00:52:04,VALID,999.779,VALID,0,VALID,90.5941,VALID,0,VALID,22.9403,VALID,115,VALID,0.467187,
2010-09-18, 00:53:04,VALID,999.787,VALID,0,VALID,90.4263,VALID,0,VALID,22.9208,VALID,115,VALID,0.151562,
2010-09-18, 00:54:04,VALID,999.752,VALID,0,VALID,90.266,VALID,0,VALID,22.8818,VALID,115,VALID,0.00976563,
2010-09-18, 00:55:04,VALID,999.765,VALID,0,VALID,90.3194,VALID,0,VALID,22.8427,VALID,115,VALID,0,
2010-09-18, 00:56:04,VALID,999.778,VALID,0,VALID,90.4644,VALID,0,VALID,22.8427,VALID,115,VALID,0,
2010-09-18, 00:57:04,VALID,999.77,VALID,0,VALID,90.5254,VALID,0,VALID,22.8232,VALID,115,VALID,0,
2010-09-18, 00:58:04,VALID,999.794,VALID,0,VALID,90.5788,VALID,0,VALID,22.8037,VALID,115,VALID,0,
2010-09-18, 00:59:04,VALID,999.806,VALID,0,VALID,90.6933,VALID,0,VALID,22.7842,VALID,115,VALID,0.0328125,
2010-09-18, 01:00:04,VALID,999.824,VALID,0,VALID,90.8306,VALID,0,VALID,22.7842,VALID,115,VALID,0.208984,
2010-09-18, 01:01:04,VALID,999.816,VALID,0,VALID,90.9909,VALID,0,VALID,22.7842,VALID,115,VALID,0.229297,
2010-09-18, 01:02:04,VALID,999.809,VALID,0,VALID,91.0595,VALID,0,VALID,22.7842,VALID,115,VALID,0.441406,
2010-09-18, 01:03:04,VALID,999.803,VALID,0,VALID,91.1663,VALID,0,VALID,22.7842,VALID,115,VALID,0.548437,
2010-09-18, 01:04:04,VALID,999.773,VALID,0,VALID,91.2045,VALID,0,VALID,22.8232,VALID,115,VALID,0.436328,
2010-09-18, 01:05:04,VALID,999.768,VALID,0,VALID,91.1511,VALID,0,VALID,22.8427,VALID,115,VALID,0.284766,
2010-09-18, 01:06:04,VALID,999.747,VALID,0,VALID,91.0748,VALID,0,VALID,22.8623,VALID,115,VALID,0.168359,
2010-09-18, 01:07:04,VALID,999.736,VALID,0,VALID,90.884,VALID,0,VALID,22.864,VALID,115,VALID,0.546094,
2010-09-18, 01:08:04,VALID,999.719,VALID,0,VALID,90.6551,VALID,0,VALID,22.8232,VALID,115,VALID,0.403125,
2010-09-18, 01:09:04,VALID,999.653,VALID,0,VALID,90.7085,VALID,0,VALID,22.7647,VALID,115,VALID,0.308594,
2010-09-18, 01:10:04,VALID,999.597,VALID,0,VALID,90.7772,VALID,0,VALID,22.7257,VALID,115,VALID,0.404687,
2010-09-18, 01:11:04,VALID,999.58,VALID,0,VALID,90.7543,VALID,0,VALID,22.6477,VALID,115,VALID,0.362891,
2010-09-18, 01:12:04,VALID,999.532,VALID,0,VALID,90.5636,VALID,0,VALID,22.5696,VALID,115,VALID,0.364062,
2010-09-18, 01:13:04,VALID,999.542,VALID,0,VALID,90.8993,VALID,0,VALID,22.5306,VALID,115,VALID,0.360156,
2010-09-18, 01:14:04,VALID,999.516,VALID,0,VALID,91.2579,VALID,0,VALID,22.4721,VALID,115,VALID,0.208203,
2010-09-18, 01:15:04,VALID,999.49,VALID,0,VALID,91.5707,VALID,0,VALID,22.4721,VALID,115,VALID,0.295703,
2010-09-18, 01:16:04,VALID,999.488,VALID,0,VALID,91.853,VALID,0,VALID,22.4721,VALID,115,VALID,0.5,
2010-09-18, 01:17:04,VALID,999.492,VALID,0,VALID,92.1353,VALID,0,VALID,22.5128,VALID,115,VALID,0.512891,
2010-09-18, 01:18:04,VALID,999.494,VALID,0,VALID,92.3031,VALID,0,VALID,22.4916,VALID,104,VALID,0.628125,
2010-09-18, 01:19:04,VALID,999.428,VALID,0,VALID,92.4328,VALID,0,VALID,22.4721,VALID,24,VALID,0.830859,
2010-09-18, 01:20:04,VALID,999.39,VALID,0,VALID,92.4252,VALID,0,VALID,22.4721,VALID,18,VALID,0.737109,
2010-09-18, 01:21:04,VALID,999.375,VALID,0,VALID,92.41,VALID,0,VALID,22.4526,VALID,18,VALID,0.732031,
2010-09-18, 01:22:04,VALID,999.362,VALID,0,VALID,92.3871,VALID,0,VALID,22.4136,VALID,18,VALID,0.850391,
2010-09-18, 01:23:04,VALID,999.39,VALID,0,VALID,92.2497,VALID,0,VALID,22.3746,VALID,47,VALID,1.10195,
2010-09-18, 01:24:04,VALID,999.348,VALID,0,VALID,92.0285,VALID,0,VALID,22.3551,VALID,56,VALID,1.46602,
2010-09-18, 01:25:04,VALID,999.322,VALID,0,VALID,91.914,VALID,0,VALID,22.4136,VALID,56,VALID,1.14375,
2010-09-18, 01:26:04,VALID,999.324,VALID,0,VALID,91.6851,VALID,0,VALID,22.4526,VALID,56,VALID,1.08984,
2010-09-18, 01:27:04,VALID,999.305,VALID,0,VALID,91.6012,VALID,0,VALID,22.4916,VALID,56,VALID,0.983594,
2010-09-18, 01:28:04,VALID,999.303,VALID,0,VALID,91.4715,VALID,0,VALID,22.5501,VALID,56,VALID,0.826953,
2010-09-18, 01:29:04,VALID,999.27,VALID,0,VALID,91.1358,VALID,0,VALID,22.5501,VALID,56,VALID,0.764453,
2010-09-18, 01:30:04,VALID,999.291,VALID,0,VALID,90.7467,VALID,0,VALID,22.5501,VALID,56,VALID,0.462109,
2010-09-18, 01:31:04,VALID,999.302,VALID,0,VALID,90.5102,VALID,0,VALID,22.5306,VALID,56,VALID,0.420703,
2010-09-18, 01:32:04,VALID,999.294,VALID,0,VALID,90.5712,VALID,0,VALID,22.5306,VALID,56,VALID,0.382422,
2010-09-18, 01:33:04,VALID,999.266,VALID,0,VALID,90.7772,VALID,0,VALID,22.5306,VALID,56,VALID,0.373828,
2010-09-18, 01:34:04,VALID,999.261,VALID,0,VALID,90.8917,VALID,0,VALID,22.5714,VALID,56,VALID,0.395312,
2010-09-18, 01:35:04,VALID,999.243,VALID,0,VALID,90.8154,VALID,0,VALID,22.5696,VALID,56,VALID,0.405859,
2010-09-18, 01:36:04,VALID,999.229,VALID,0,VALID,90.7314,VALID,0,VALID,22.5892,VALID,56,VALID,0.66875,
2010-09-18, 01:37:04,VALID,999.199,VALID,0,VALID,90.6399,VALID,0,VALID,22.6282,VALID,56,VALID,0.705859,
2010-09-18, 01:38:04,VALID,999.19,VALID,0,VALID,90.4186,VALID,0,VALID,22.6477,VALID,46,VALID,0.980859,
2010-09-18, 01:39:04,VALID,999.181,VALID,0,VALID,90.2126,VALID,0,VALID,22.6672,VALID,46,VALID,0.739844,
2010-09-18, 01:40:04,VALID,999.172,VALID,0,VALID,90.0829,VALID,0,VALID,22.6867,VALID,46,VALID,0.710547,
2010-09-18, 01:41:04,VALID,999.185,VALID,0,VALID,90.0448,VALID,0,VALID,22.7062,VALID,46,VALID,0.732031,
2010-09-18, 01:42:04,VALID,999.178,VALID,0,VALID,89.7854,VALID,0,VALID,22.7257,VALID,33,VALID,0.99375,
2010-09-18, 01:43:04,VALID,999.198,VALID,0,VALID,89.7396,VALID,0,VALID,22.7469,VALID,33,VALID,1.075,
2010-09-18, 01:44:04,VALID,999.192,VALID,0,VALID,89.4802,VALID,0,VALID,22.7257,VALID,33,VALID,0.916797,
2010-09-18, 01:45:04,VALID,999.198,VALID,0,VALID,89.6557,VALID,0,VALID,22.7257,VALID,33,VALID,0.653125,
2010-09-18, 01:46:04,VALID,999.219,VALID,0,VALID,89.4191,VALID,0,VALID,22.7469,VALID,33,VALID,0.655078,
2010-09-18, 01:47:04,VALID,999.24,VALID,0,VALID,89.2437,VALID,0,VALID,22.7062,VALID,33,VALID,0.396094,
2010-09-18, 01:48:04,VALID,999.256,VALID,0,VALID,89.2132,VALID,0,VALID,22.6867,VALID,33,VALID,0.260938,
2010-09-18, 01:49:04,VALID,999.265,VALID,0,VALID,89.2818,VALID,0,VALID,22.6884,VALID,33,VALID,0.272656,
2010-09-18, 01:50:04,VALID,999.249,VALID,0,VALID,89.5641,VALID,0,VALID,22.6477,VALID,33,VALID,0.151562,
2010-09-18, 01:51:04,VALID,999.246,VALID,0,VALID,89.793,VALID,0,VALID,22.6069,VALID,33,VALID,0.286719,
2010-09-18, 01:52:04,VALID,999.237,VALID,0,VALID,90.2508,VALID,0,VALID,22.6477,VALID,33,VALID,0.291016,
2010-09-18, 01:53:04,VALID,999.228,VALID,0,VALID,90.2126,VALID,0,VALID,22.6477,VALID,33,VALID,0.322656,
2010-09-18, 01:54:04,VALID,999.206,VALID,0,VALID,90.0982,VALID,0,VALID,22.6672,VALID,33,VALID,0.353906,
2010-09-18, 01:55:04,VALID,999.196,VALID,0,VALID,90.0524,VALID,0,VALID,22.6477,VALID,33,VALID,0.496484,
2010-09-18, 01:56:04,VALID,999.19,VALID,0,VALID,90.205,VALID,0,VALID,22.6477,VALID,33,VALID,0.59375,
2010-09-18, 01:57:04,VALID,999.188,VALID,0,VALID,89.9532,VALID,0,VALID,22.6867,VALID,33,VALID,0.613281,
2010-09-18, 01:58:04,VALID,999.212,VALID,0,VALID,89.5946,VALID,0,VALID,22.6672,VALID,33,VALID,0.717578,
2010-09-18, 01:59:04,VALID,999.222,VALID,0,VALID,89.1979,VALID,0,VALID,22.6087,VALID,33,VALID,0.923437,
2010-09-18, 02:00:04,VALID,999.23,VALID,0,VALID,89.648,VALID,0,VALID,22.6299,VALID,33,VALID,1.02148,
2010-09-18, 02:01:04,VALID,999.224,VALID,0,VALID,89.5031,VALID,0,VALID,22.5696,VALID,33,VALID,1.21133,
2010-09-18, 02:02:04,VALID,999.215,VALID,0,VALID,89.1903,VALID,0,VALID,22.5306,VALID,33,VALID,1.0375,
2010-09-18, 02:03:04,VALID,999.208,VALID,0,VALID,89.3428,VALID,0,VALID,22.4721,VALID,36,VALID,0.998047,
2010-09-18, 02:04:04,VALID,999.201,VALID,0,VALID,89.732,VALID,0,VALID,22.4331,VALID,41,VALID,1.025,
2010-09-18, 02:05:04,VALID,999.189,VALID,0,VALID,89.9914,VALID,0,VALID,22.4136,VALID,39,VALID,0.984766,
2010-09-18, 02:06:04,VALID,999.162,VALID,0,VALID,89.938,VALID,0,VALID,22.3941,VALID,17,VALID,0.784766,
2010-09-18, 02:07:04,VALID,999.196,VALID,0,VALID,90.0829,VALID,0,VALID,22.3746,VALID,13,VALID,0.838281,
2010-09-18, 02:08:04,VALID,999.202,VALID,0,VALID,90.4263,VALID,0,VALID,22.3551,VALID,13,VALID,0.75,
2010-09-18, 02:09:05,VALID,999.21,VALID,0,VALID,90.6704,VALID,0,VALID,22.3941,VALID,13,VALID,0.688672,
2010-09-18, 02:10:05,VALID,999.26,VALID,0,VALID,90.6628,VALID,0,VALID,22.4136,VALID,13,VALID,0.585938,
2010-09-18, 02:11:05,VALID,999.262,VALID,0,VALID,90.7391,VALID,0,VALID,22.4526,VALID,13,VALID,0.572266,
2010-09-18, 02:12:05,VALID,999.275,VALID,0,VALID,90.7009,VALID,0,VALID,22.4721,VALID,15,VALID,0.588672,
2010-09-18, 02:13:05,VALID,999.258,VALID,0,VALID,90.5865,VALID,0,VALID,22.4721,VALID,35,VALID,0.694141,
2010-09-18, 02:14:05,VALID,999.282,VALID,0,VALID,90.4797,VALID,0,VALID,22.5111,VALID,48,VALID,0.580469,
2010-09-18, 02:15:05,VALID,999.235,VALID,0,VALID,90.3347,VALID,0,VALID,22.5306,VALID,50,VALID,0.396484,
2010-09-18, 02:16:05,VALID,999.27,VALID,0,VALID,90.2126,VALID,0,VALID,22.5306,VALID,70,VALID,0.638281,
2010-09-18, 02:17:05,VALID,999.289,VALID,0,VALID,90.2889,VALID,0,VALID,22.5306,VALID,91,VALID,0.761719,
2010-09-18, 02:18:05,VALID,999.269,VALID,0,VALID,90.1211,VALID,0,VALID,22.5696,VALID,91,VALID,0.801172,
2010-09-18, 02:19:05,VALID,999.28,VALID,0,VALID,89.8998,VALID,0,VALID,22.6282,VALID,92,VALID,1.07305,
2010-09-18, 02:20:05,VALID,999.291,VALID,0,VALID,89.4115,VALID,0,VALID,22.6672,VALID,92,VALID,0.897656,
2010-09-18, 02:21:05,VALID,999.295,VALID,0,VALID,89.0987,VALID,0,VALID,22.7045,VALID,92,VALID,0.8,
2010-09-18, 02:22:05,VALID,999.319,VALID,0,VALID,88.8698,VALID,0,VALID,22.7647,VALID,92,VALID,1.04727,
2010-09-18, 02:23:05,VALID,999.286,VALID,0,VALID,88.5646,VALID,0,VALID,22.7825,VALID,86,VALID,1.06367,
2010-09-18, 02:24:05,VALID,999.27,VALID,0,VALID,88.4197,VALID,0,VALID,22.8623,VALID,66,VALID,1.07383,
2010-09-18, 02:25:05,VALID,999.238,VALID,0,VALID,88.0077,VALID,0,VALID,22.8818,VALID,66,VALID,0.993359,
2010-09-18, 02:26:05,VALID,999.248,VALID,0,VALID,87.9543,VALID,0,VALID,22.8818,VALID,64,VALID,1.07773,
2010-09-18, 02:27:05,VALID,999.227,VALID,0,VALID,88.0077,VALID,0,VALID,22.8818,VALID,61,VALID,1.23047,
2010-09-18, 02:28:05,VALID,999.207,VALID,0,VALID,87.9466,VALID,0,VALID,22.8835,VALID,60,VALID,1.00352,
2010-09-18, 02:29:05,VALID,999.167,VALID,0,VALID,87.8932,VALID,0,VALID,22.8623,VALID,46,VALID,1.28555,
2010-09-18, 02:30:05,VALID,999.168,VALID,0,VALID,87.9314,VALID,0,VALID,22.8232,VALID,45,VALID,0.994531,
2010-09-18, 02:31:05,VALID,999.18,VALID,0,VALID,88.0763,VALID,0,VALID,22.7647,VALID,54,VALID,0.853906,
2010-09-18, 02:32:05,VALID,999.172,VALID,0,VALID,88.351,VALID,0,VALID,22.7257,VALID,62,VALID,0.618359,
2010-09-18, 02:33:05,VALID,999.177,VALID,0,VALID,88.5112,VALID,0,VALID,22.6867,VALID,62,VALID,0.584375,
2010-09-18, 02:34:05,VALID,999.197,VALID,0,VALID,88.5799,VALID,0,VALID,22.6884,VALID,62,VALID,0.432031,
2010-09-18, 02:35:05,VALID,999.167,VALID,0,VALID,88.7935,VALID,0,VALID,22.6282,VALID,62,VALID,0.55625,
2010-09-18, 02:36:05,VALID,999.167,VALID,0,VALID,88.9385,VALID,0,VALID,22.6087,VALID,62,VALID,0.521094,
2010-09-18, 02:37:05,VALID,999.177,VALID,0,VALID,88.9537,VALID,0,VALID,22.6104,VALID,62,VALID,0.277734,
2010-09-18, 02:38:05,VALID,999.155,VALID,0,VALID,88.8469,VALID,0,VALID,22.5696,VALID,62,VALID,0.264062,
2010-09-18, 02:39:05,VALID,999.139,VALID,0,VALID,88.908,VALID,0,VALID,22.5306,VALID,62,VALID,0.31875,
2010-09-18, 02:40:05,VALID,999.153,VALID,0,VALID,88.9843,VALID,0,VALID,22.5128,VALID,62,VALID,0.3125,
2010-09-18, 02:41:05,VALID,999.141,VALID,0,VALID,89.2284,VALID,0,VALID,22.4526,VALID,43,VALID,0.58125,
2010-09-18, 02:42:05,VALID,999.136,VALID,0,VALID,89.6404,VALID,0,VALID,22.4543,VALID,37,VALID,0.583984,
2010-09-18, 02:43:05,VALID,999.128,VALID,0,VALID,90.0295,VALID,0,VALID,22.4543,VALID,342,VALID,0.816016,
2010-09-18, 02:44:05,VALID,999.12,VALID,0,VALID,90.2889,VALID,0,VALID,22.4543,VALID,325,VALID,0.838672,
2010-09-18, 02:45:05,VALID,999.112,VALID,0,VALID,90.3042,VALID,0,VALID,22.4526,VALID,325,VALID,0.701172,
2010-09-18, 02:46:05,VALID,999.108,VALID,0,VALID,90.4263,VALID,0,VALID,22.4933,VALID,325,VALID,0.696875,
2010-09-18, 02:47:05,VALID,999.116,VALID,0,VALID,90.3652,VALID,0,VALID,22.4916,VALID,333,VALID,0.308594,
2010-09-18, 02:48:05,VALID,999.115,VALID,0,VALID,90.0982,VALID,0,VALID,22.5111,VALID,333,VALID,0.252734,
2010-09-18, 02:49:05,VALID,999.122,VALID,0,VALID,90.0448,VALID,0,VALID,22.5306,VALID,333,VALID,0.298828,
2010-09-18, 02:50:05,VALID,999.117,VALID,0,VALID,89.8693,VALID,0,VALID,22.5714,VALID,333,VALID,0.248437,
2010-09-18, 02:51:05,VALID,999.155,VALID,0,VALID,89.5565,VALID,0,VALID,22.5696,VALID,333,VALID,0.442578,
2010-09-18, 02:52:05,VALID,999.114,VALID,0,VALID,89.2208,VALID,0,VALID,22.5501,VALID,333,VALID,0.502734,
2010-09-18, 02:53:05,VALID,999.111,VALID,0,VALID,89.4573,VALID,0,VALID,22.5111,VALID,333,VALID,0.592969,
2010-09-18, 02:54:05,VALID,999.098,VALID,0,VALID,89.6786,VALID,0,VALID,22.4526,VALID,333,VALID,0.627344,
2010-09-18, 02:55:05,VALID,999.102,VALID,0,VALID,89.938,VALID,0,VALID,22.4331,VALID,9,VALID,0.96875,
2010-09-18, 02:56:05,VALID,999.114,VALID,0,VALID,89.9609,VALID,0,VALID,22.3941,VALID,22,VALID,1.25234,
2010-09-18, 02:57:05,VALID,999.149,VALID,0,VALID,90.0371,VALID,0,VALID,22.3356,VALID,22,VALID,1.18984,
2010-09-18, 02:58:05,VALID,999.153,VALID,0,VALID,90.35,VALID,0,VALID,22.3161,VALID,26,VALID,1.07344,
2010-09-18, 02:59:05,VALID,999.164,VALID,0,VALID,90.2737,VALID,0,VALID,22.2966,VALID,29,VALID,0.914844,
2010-09-18, 03:00:05,VALID,999.179,VALID,0,VALID,90.0829,VALID,0,VALID,22.2771,VALID,29,VALID,0.526563,
2010-09-18, 03:01:05,VALID,999.173,VALID,0,VALID,90.0371,VALID,0,VALID,22.2381,VALID,29,VALID,0.212891,
2010-09-18, 03:02:05,VALID,999.171,VALID,0,VALID,90.35,VALID,0,VALID,22.2771,VALID,29,VALID,0.439844,
2010-09-18, 03:03:05,VALID,999.177,VALID,0,VALID,90.5407,VALID,0,VALID,22.3356,VALID,338,VALID,0.351563,
2010-09-18, 03:04:05,VALID,999.19,VALID,0,VALID,90.4186,VALID,0,VALID,22.4153,VALID,255,VALID,0.691797,
2010-09-18, 03:05:05,VALID,999.214,VALID,0,VALID,90.3042,VALID,0,VALID,22.4721,VALID,254,VALID,0.549219,
2010-09-18, 03:06:05,VALID,999.229,VALID,0,VALID,90.0143,VALID,0,VALID,22.5519,VALID,254,VALID,0.212891,
2010-09-18, 03:07:05,VALID,999.219,VALID,0,VALID,89.8159,VALID,0,VALID,22.5501,VALID,254,VALID,0.23125,
2010-09-18, 03:08:05,VALID,999.245,VALID,0,VALID,89.793,VALID,0,VALID,22.5696,VALID,254,VALID,0.241016,
2010-09-18, 03:09:05,VALID,999.271,VALID,0,VALID,89.6862,VALID,0,VALID,22.5501,VALID,254,VALID,0.101563,
2010-09-18, 03:10:05,VALID,999.293,VALID,0,VALID,89.7167,VALID,0,VALID,22.5306,VALID,254,VALID,0,
2010-09-18, 03:11:05,VALID,999.307,VALID,0,VALID,89.7091,VALID,0,VALID,22.4916,VALID,254,VALID,0,
2010-09-18, 03:12:05,VALID,999.335,VALID,0,VALID,89.793,VALID,0,VALID,22.4933,VALID,254,VALID,0.173828,
2010-09-18, 03:13:05,VALID,999.322,VALID,0,VALID,89.6938,VALID,0,VALID,22.4526,VALID,254,VALID,0.0292969,
2010-09-18, 03:14:05,VALID,999.346,VALID,0,VALID,89.5336,VALID,0,VALID,22.4721,VALID,200,VALID,0.322266,
2010-09-18, 03:15:05,VALID,999.377,VALID,0,VALID,89.526,VALID,0,VALID,22.4916,VALID,117,VALID,0.595312,
2010-09-18, 03:16:05,VALID,999.378,VALID,0,VALID,89.2666,VALID,0,VALID,22.5111,VALID,128,VALID,0.456641,
2010-09-18, 03:17:05,VALID,999.391,VALID,0,VALID,89.0987,VALID,0,VALID,22.5128,VALID,49,VALID,0.818359,
2010-09-18, 03:18:05,VALID,999.409,VALID,0,VALID,89.3963,VALID,0,VALID,22.5323,VALID,50,VALID,1.21758,
2010-09-18, 03:19:05,VALID,999.433,VALID,0,VALID,88.9461,VALID,0,VALID,22.5714,VALID,49,VALID,1.26367,
2010-09-18, 03:20:05,VALID,999.5,VALID,0,VALID,88.557,VALID,0,VALID,22.5306,VALID,48,VALID,1.56367,
2010-09-18, 03:21:05,VALID,999.546,VALID,0,VALID,88.7554,VALID,0,VALID,22.4916,VALID,49,VALID,1.72578,
2010-09-18, 03:22:05,VALID,999.6,VALID,0,VALID,89.03,VALID,0,VALID,22.4721,VALID,47,VALID,1.86133,
2010-09-18, 03:23:05,VALID,999.597,VALID,0,VALID,89.175,VALID,0,VALID,22.4933,VALID,50,VALID,1.81719,
2010-09-18, 03:24:05,VALID,999.614,VALID,0,VALID,88.969,VALID,0,VALID,22.4721,VALID,44,VALID,1.50391,
2010-09-18, 03:25:05,VALID,999.614,VALID,0,VALID,88.6791,VALID,0,VALID,22.4916,VALID,43,VALID,1.48164,
2010-09-18, 03:26:05,VALID,999.633,VALID,0,VALID,88.3357,VALID,0,VALID,22.5306,VALID,74,VALID,1.64063,
2010-09-18, 03:27:05,VALID,999.641,VALID,0,VALID,87.7025,VALID,0,VALID,22.6282,VALID,83,VALID,2.11875,
2010-09-18, 03:28:05,VALID,999.661,VALID,0,VALID,86.9548,VALID,0,VALID,22.7842,VALID,77,VALID,1.79531,
2010-09-18, 03:29:05,VALID,999.654,VALID,0,VALID,86.1994,VALID,0,VALID,22.9208,VALID,81,VALID,1.80977,
2010-09-18, 03:30:05,VALID,999.683,VALID,0,VALID,85.6349,VALID,0,VALID,23.0183,VALID,91,VALID,1.76484,
2010-09-18, 03:31:05,VALID,999.651,VALID,0,VALID,84.9787,VALID,0,VALID,23.1354,VALID,91,VALID,1.15039,
2010-09-18, 03:32:05,VALID,999.623,VALID,0,VALID,84.9024,VALID,0,VALID,23.2134,VALID,84,VALID,1.14766,
2010-09-18, 03:33:05,VALID,999.636,VALID,0,VALID,84.6735,VALID,0,VALID,23.2329,VALID,91,VALID,1.10742,
2010-09-18, 03:34:05,VALID,999.612,VALID,0,VALID,84.7346,VALID,0,VALID,23.2542,VALID,82,VALID,0.892578,
2010-09-18, 03:35:05,VALID,999.608,VALID,0,VALID,85.261,VALID,0,VALID,23.1744,VALID,48,VALID,0.786719,
2010-09-18, 03:36:05,VALID,999.635,VALID,0,VALID,85.7188,VALID,0,VALID,23.0964,VALID,45,VALID,0.480859,
2010-09-18, 03:37:05,VALID,999.679,VALID,0,VALID,86.1079,VALID,0,VALID,23.0183,VALID,45,VALID,0.140234,
2010-09-18, 03:38:05,VALID,999.639,VALID,0,VALID,86.4436,VALID,0,VALID,22.9598,VALID,45,VALID,0.246484,
2010-09-18, 03:39:05,VALID,999.65,VALID,0,VALID,86.6725,VALID,0,VALID,22.9013,VALID,45,VALID,0.183594,
2010-09-18, 03:40:05,VALID,999.651,VALID,0,VALID,87.0921,VALID,0,VALID,22.8427,VALID,45,VALID,0.690625,
2010-09-18, 03:41:05,VALID,999.658,VALID,0,VALID,87.2447,VALID,0,VALID,22.7842,VALID,45,VALID,0.858594,
2010-09-18, 03:42:05,VALID,999.639,VALID,0,VALID,87.8322,VALID,0,VALID,22.7647,VALID,45,VALID,0.944141,
2010-09-18, 03:43:05,VALID,999.647,VALID,0,VALID,88.0916,VALID,0,VALID,22.7257,VALID,45,VALID,1.02305,
2010-09-18, 03:44:05,VALID,999.635,VALID,0,VALID,88.0306,VALID,0,VALID,22.7257,VALID,45,VALID,0.829687,
2010-09-18, 03:45:05,VALID,999.617,VALID,0,VALID,87.8627,VALID,0,VALID,22.7062,VALID,45,VALID,0.780469,
2010-09-18, 03:46:05,VALID,999.635,VALID,0,VALID,88.0229,VALID,0,VALID,22.7062,VALID,45,VALID,0.796484,
2010-09-18, 03:47:05,VALID,999.62,VALID,0,VALID,87.8551,VALID,0,VALID,22.7062,VALID,45,VALID,0.768359,